This is the latest recevied weather packets stored in our database for station/object KI4HRG. If no packets are shown the sender has not sent any weather packets the latest 10 day(s).
| Time | Temp. | Humidity | Pressure | Rain* | Wind** | Luminosity | Snow |
|---|---|---|---|---|---|---|---|
| 1787935864 | 32.22° C | 54% | 1017.6 hPa | 0 mm | - | 740 W/m² | - |
| 1787935559 | 32.22° C | 57% | 1017.4 hPa | 0 mm | - | 760 W/m² | - |
| 1787935255 | 31.67° C | 56% | 1017.5 hPa | 0 mm | - | 716 W/m² | - |
| 1787934950 | 31.67° C | 57% | 1017.5 hPa | 0 mm | - | 191 W/m² | - |
| 1787934645 | 32.22° C | 59% | 1017.3 hPa | 0 mm | - | 176 W/m² | - |
| 1787934339 | 32.22° C | 56% | 1017.4 hPa | 0 mm | - | 771 W/m² | - |
| 1787934038 | 31.67° C | 59% | 1017.5 hPa | 0 mm | - | 742 W/m² | - |
| 1787933738 | 32.22° C | 59% | 1017.6 hPa | 0 mm | - | 784 W/m² | - |
| 1787933433 | 32.22° C | 56% | 1017.4 hPa | 0 mm | - | 758 W/m² | - |
| 1787933133 | 32.22° C | 60% | 1017.6 hPa | 0 mm | - | 761 W/m² | - |
| 1787932827 | 32.78° C | 61% | 1017.5 hPa | 0 mm | - | 740 W/m² | - |
| 1787932521 | 32.22° C | 61% | 1017.4 hPa | 0 mm | - | 748 W/m² | - |
| 1787932216 | 31.67° C | 61% | 1017.5 hPa | 0 mm | - | 771 W/m² | - |
| 1787931915 | 31.67° C | 62% | 1017.5 hPa | 0 mm | - | 765 W/m² | - |
| 1787931609 | 31.67° C | 65% | 1017.6 hPa | 0 mm | - | 755 W/m² | - |
| 1787931304 | 30.56° C | 67% | 1017.5 hPa | 0 mm | - | 773 W/m² | - |
| 1787931003 | 30.56° C | 66% | 1017.7 hPa | 0 mm | - | 762 W/m² | - |
| 1787930703 | 31.11° C | 64% | 1017.7 hPa | 0 mm | - | 726 W/m² | - |
| 1787930397 | 31.11° C | 66% | 1017.5 hPa | 0 mm | - | 722 W/m² | - |
| 1787930092 | 31.11° C | 68% | 1017.5 hPa | 0 mm | - | 658 W/m² | - |
| 1787929791 | 31.67° C | 69% | 1017.4 hPa | 0 mm | - | 636 W/m² | - |
| 1787929486 | 31.67° C | 67% | 1017.5 hPa | 0 mm | - | 624 W/m² | - |
| 1787929184 | 30.56° C | 70% | 1017.6 hPa | 0 mm | - | 602 W/m² | - |
| 1787928878 | 30° C | 70% | 1017.5 hPa | 0 mm | - | 556 W/m² | - |
| 1787928573 | 30.56° C | 73% | 1017.6 hPa | 0 mm | - | 560 W/m² | - |
* Rain latest hour (hover to see other rain measurements)
** Current wind speed in m/s (hover to see current wind gust speed)